CCM66BM LFLL-LFKB

Flight info

Callsign CCM66BM
Flight time 0h 53m
Altitude 35000
Route ROMAM T43 BEPER DCT RETNO DCT KOLON DCT NARTI UP991 NIRDO
Aircraft A320/M-SDE3FGHIRWY/LB1

Departure

Time 2026-04-29 18:17
Airport Lyon Saint-Exupéry Airport (LFLL)

Arrival

Time 2026-04-29 19:10
Airport Bastia-Poretta International airport (LFKB)
Time Latitude Longitude Altitude Speed Heading
2026-04-29 17:34 45.71834 5.08043 797 ft 0 kts 297°
2026-04-29 18:06 45.71828 5.08058 796 ft 4 kts 297°
2026-04-29 18:06 45.71816 5.08092 799 ft 4 kts 296°
2026-04-29 18:07 45.71805 5.08127 797 ft 4 kts 285°
2026-04-29 18:07 45.71803 5.08160 797 ft 4 kts 229°
2026-04-29 18:07 45.71807 5.08166 797 ft 0 kts 201°
2026-04-29 18:11 45.71793 5.08157 797 ft 4 kts 205°
2026-04-29 18:11 45.71755 5.08127 797 ft 6 kts 206°
2026-04-29 18:11 45.71721 5.08124 798 ft 3 kts 166°
2026-04-29 18:11 45.71693 5.08167 800 ft 9 kts 113°
2026-04-29 18:12 45.71680 5.08240 801 ft 8 kts 96°
2026-04-29 18:12 45.71680 5.08357 799 ft 15 kts 85°
2026-04-29 18:12 45.71674 5.08476 802 ft 10 kts 125°
2026-04-29 18:12 45.71617 5.08502 802 ft 11 kts 175°
2026-04-29 18:13 45.71514 5.08515 803 ft 16 kts 174°
2026-04-29 18:13 45.71426 5.08526 808 ft 9 kts 175°
2026-04-29 18:13 45.71371 5.08533 811 ft 8 kts 175°
2026-04-29 18:13 45.71306 5.08540 813 ft 11 kts 175°
2026-04-29 18:14 45.71215 5.08551 813 ft 15 kts 175°
2026-04-29 18:14 45.71125 5.08616 818 ft 13 kts 124°
2026-04-29 18:14 45.71103 5.08720 815 ft 10 kts 104°
2026-04-29 18:14 45.71088 5.08802 818 ft 8 kts 104°
2026-04-29 18:15 45.71077 5.08899 820 ft 10 kts 90°
2026-04-29 18:15 45.71082 5.08981 821 ft 8 kts 84°
2026-04-29 18:15 45.71100 5.09031 819 ft 5 kts
2026-04-29 18:15 45.71143 5.09026 820 ft 7 kts 355°
2026-04-29 18:16 45.71211 5.09018 818 ft 19 kts 355°
2026-04-29 18:16 45.71598 5.08971 814 ft 90 kts 355°
2026-04-29 18:16 45.72419 5.08870 797 ft 146 kts 355°
2026-04-29 18:16 45.73568 5.08750 947 ft 177 kts 356°
2026-04-29 18:17 45.74835 5.08591 1519 ft 187 kts 355°
2026-04-29 18:17 45.76149 5.08411 2193 ft 192 kts 357°
2026-04-29 18:17 45.77472 5.08246 2869 ft 193 kts 357°
2026-04-29 18:17 45.78802 5.08079 3536 ft 191 kts 357°
2026-04-29 18:18 45.80121 5.07914 4186 ft 190 kts 357°
2026-04-29 18:18 45.81497 5.07746 4535 ft 208 kts 358°
2026-04-29 18:18 45.82980 5.08046 4744 ft 228 kts 32°
2026-04-29 18:18 45.84032 5.09752 5170 ft 240 kts 71°
2026-04-29 18:19 45.84093 5.12139 5815 ft 246 kts 109°
2026-04-29 18:19 45.83110 5.14133 6516 ft 252 kts 144°
2026-04-29 18:19 45.81569 5.15308 7247 ft 255 kts 158°
2026-04-29 18:19 45.79880 5.16160 8034 ft 259 kts 162°
2026-04-29 18:20 45.78150 5.16939 8834 ft 262 kts 163°
2026-04-29 18:20 45.76409 5.17755 9630 ft 265 kts 162°
2026-04-29 18:20 45.75248 5.18336 10125 ft 267 kts 161°
2026-04-29 18:20 45.73492 5.19273 10840 ft 271 kts 160°
2026-04-29 18:21 45.71682 5.20043 11531 ft 273 kts 172°
2026-04-29 18:21 45.69738 5.20184 11894 ft 291 kts 184°
2026-04-29 18:21 45.67630 5.20027 12090 ft 314 kts 184°
2026-04-29 18:21 45.65390 5.19872 12314 ft 335 kts 183°
2026-04-29 18:22 45.63030 5.19715 12890 ft 343 kts 183°
2026-04-29 18:22 45.60628 5.19559 13574 ft 347 kts 183°
2026-04-29 18:22 45.58204 5.19404 14204 ft 351 kts 183°
2026-04-29 18:22 45.55746 5.19248 14820 ft 355 kts 183°
2026-04-29 18:23 45.53260 5.19093 15435 ft 358 kts 183°
2026-04-29 18:23 45.50768 5.18934 16039 ft 362 kts 183°
2026-04-29 18:23 45.48242 5.18770 16653 ft 365 kts 183°
2026-04-29 18:23 45.45686 5.18603 17241 ft 369 kts 183°
2026-04-29 18:24 45.43109 5.18434 17862 ft 372 kts 183°
2026-04-29 18:24 45.40504 5.18262 18434 ft 376 kts 183°
2026-04-29 18:24 45.37871 5.18092 18946 ft 379 kts 183°
2026-04-29 18:24 45.35228 5.17923 19467 ft 382 kts 183°
2026-04-29 18:25 45.32597 5.17758 19981 ft 385 kts 183°
2026-04-29 18:25 45.29900 5.17592 20510 ft 388 kts 183°
2026-04-29 18:25 45.27195 5.17425 21034 ft 391 kts 184°
2026-04-29 18:25 45.24465 5.17254 21560 ft 393 kts 184°
2026-04-29 18:26 45.21717 5.17079 22089 ft 396 kts 184°
2026-04-29 18:26 45.18951 5.16900 22612 ft 399 kts 184°
2026-04-29 18:26 45.16199 5.16723 23108 ft 402 kts 184°
2026-04-29 18:26 45.13378 5.16544 23603 ft 405 kts 184°
2026-04-29 18:27 45.10538 5.16389 24013 ft 408 kts 181°
2026-04-29 18:27 45.07720 5.16617 24406 ft 412 kts 177°
2026-04-29 18:27 45.04845 5.16936 24812 ft 414 kts 177°
2026-04-29 18:27 45.01966 5.17260 25207 ft 416 kts 177°
2026-04-29 18:28 44.99066 5.17586 25584 ft 418 kts 177°
2026-04-29 18:28 44.96148 5.17913 25967 ft 421 kts 177°
2026-04-29 18:28 44.93216 5.18242 26336 ft 423 kts 177°
2026-04-29 18:28 44.90309 5.18566 26702 ft 425 kts 177°
2026-04-29 18:29 44.87338 5.18892 27048 ft 428 kts 177°
2026-04-29 18:29 44.84366 5.19220 27413 ft 430 kts 177°
2026-04-29 18:29 44.81378 5.19552 27786 ft 432 kts 177°
2026-04-29 18:29 44.78371 5.19886 28120 ft 434 kts 177°
2026-04-29 18:30 44.75343 5.20223 28464 ft 436 kts 177°
2026-04-29 18:30 44.72313 5.20558 28783 ft 438 kts 177°
2026-04-29 18:30 44.69308 5.20988 29104 ft 441 kts 172°
2026-04-29 18:30 44.66323 5.22071 29416 ft 446 kts 161°
2026-04-29 18:31 44.63486 5.23913 29714 ft 450 kts 150°
2026-04-29 18:31 44.60919 5.26466 30010 ft 454 kts 140°
2026-04-29 18:31 44.58687 5.29645 30259 ft 457 kts 132°
2026-04-29 18:31 44.56587 5.33002 30502 ft 459 kts 132°
2026-04-29 18:32 44.54489 5.36339 30721 ft 462 kts 132°
2026-04-29 18:32 44.50197 5.43126 31149 ft 466 kts 133°
2026-04-29 18:32 44.48037 5.46535 31363 ft 467 kts 133°
2026-04-29 18:33 44.45877 5.49937 31739 ft 465 kts 133°
2026-04-29 18:33 44.43762 5.53274 32090 ft 463 kts 133°
2026-04-29 18:33 44.41614 5.56657 32417 ft 462 kts 133°
2026-04-29 18:33 44.39473 5.60019 32725 ft 462 kts 133°
2026-04-29 18:34 44.37456 5.63457 33037 ft 462 kts 126°
2026-04-29 18:34 44.36243 5.65962 33247 ft 462 kts 124°
2026-04-29 18:34 44.33865 5.70906 33667 ft 461 kts 125°
2026-04-29 18:34 44.32066 5.74630 33943 ft 461 kts 124°
2026-04-29 18:35 44.30279 5.78307 34192 ft 461 kts 125°
2026-04-29 18:35 44.28466 5.82019 34452 ft 461 kts 125°
2026-04-29 18:35 44.26656 5.85720 34696 ft 460 kts 125°
2026-04-29 18:35 44.24846 5.89415 34964 ft 459 kts 125°
2026-04-29 18:36 44.21304 5.96658 35045 ft 450 kts 125°
2026-04-29 18:36 44.17774 6.03869 35043 ft 448 kts 125°
2026-04-29 18:37 44.14248 6.11053 35048 ft 449 kts 125°
2026-04-29 18:37 44.10720 6.18214 35043 ft 451 kts 125°
2026-04-29 18:38 44.07167 6.25413 35050 ft 451 kts 125°
2026-04-29 18:38 44.03634 6.32550 35046 ft 450 kts 125°
2026-04-29 18:39 44.00073 6.39728 35059 ft 450 kts 125°
2026-04-29 18:39 43.96515 6.46894 35071 ft 450 kts 125°
2026-04-29 18:40 43.92969 6.54003 35055 ft 450 kts 125°
2026-04-29 18:40 43.89395 6.61152 35050 ft 450 kts 125°
2026-04-29 18:41 43.82258 6.75395 35039 ft 450 kts 125°
2026-04-29 18:42 43.78681 6.82498 35046 ft 449 kts 125°
2026-04-29 18:42 43.75123 6.89542 35034 ft 449 kts 125°
2026-04-29 18:43 43.71450 6.96536 35023 ft 448 kts 131°
2026-04-29 18:43 43.67372 7.03066 35017 ft 449 kts 131°
2026-04-29 18:44 43.63315 7.09572 35018 ft 449 kts 131°
2026-04-29 18:44 43.59224 7.16123 35017 ft 449 kts 131°
2026-04-29 18:45 43.55294 7.22747 35027 ft 449 kts 123°
2026-04-29 18:45 43.52489 7.30426 35027 ft 448 kts 114°
2026-04-29 18:46 43.49932 7.38209 35020 ft 448 kts 114°
2026-04-29 18:46 43.47341 7.46034 35017 ft 448 kts 114°
2026-04-29 18:47 43.44753 7.53844 35017 ft 448 kts 114°
2026-04-29 18:47 43.42183 7.61588 34921 ft 447 kts 114°
2026-04-29 18:48 43.40896 7.65461 34631 ft 443 kts 114°
2026-04-29 18:48 43.39614 7.69312 34101 ft 441 kts 114°
2026-04-29 18:48 43.38337 7.73135 33517 ft 438 kts 114°
2026-04-29 18:48 43.37066 7.76930 33006 ft 435 kts 114°
2026-04-29 18:49 43.35806 7.80699 32485 ft 432 kts 114°
2026-04-29 18:49 43.34559 7.84438 31970 ft 429 kts 114°
2026-04-29 18:49 43.33333 7.88111 31475 ft 426 kts 114°
2026-04-29 18:49 43.32097 7.91804 30967 ft 424 kts 114°
2026-04-29 18:50 43.30862 7.95474 30477 ft 421 kts 114°
2026-04-29 18:50 43.29629 7.99125 29974 ft 419 kts 114°
2026-04-29 18:50 43.28403 8.02744 29465 ft 416 kts 115°
2026-04-29 18:50 43.27188 8.06329 28997 ft 412 kts 115°
2026-04-29 18:51 43.26003 8.09830 28558 ft 408 kts 115°
2026-04-29 18:51 43.24813 8.13345 28110 ft 404 kts 115°
2026-04-29 18:51 43.23630 8.16838 27665 ft 401 kts 115°
2026-04-29 18:51 43.22455 8.20304 27219 ft 398 kts 115°
2026-04-29 18:52 43.21304 8.23692 26771 ft 396 kts 115°
2026-04-29 18:52 43.20141 8.27108 26319 ft 393 kts 115°
2026-04-29 18:52 43.18988 8.30494 25862 ft 391 kts 115°
2026-04-29 18:52 43.17837 8.33872 25400 ft 390 kts 115°
2026-04-29 18:53 43.16688 8.37235 24932 ft 389 kts 115°
2026-04-29 18:53 43.15541 8.40587 24433 ft 388 kts 115°
2026-04-29 18:53 43.14563 8.43975 24086 ft 383 kts 105°
2026-04-29 18:53 43.13990 8.47532 23664 ft 383 kts 101°
2026-04-29 18:54 43.13482 8.51169 22830 ft 392 kts 100°
2026-04-29 18:54 43.12972 8.54831 22318 ft 390 kts 100°
2026-04-29 18:54 43.12463 8.58481 21797 ft 389 kts 100°
2026-04-29 18:54 43.11962 8.62074 21272 ft 388 kts 100°
2026-04-29 18:55 43.11458 8.65700 20749 ft 388 kts 100°
2026-04-29 18:55 43.10954 8.69313 20330 ft 384 kts 100°
2026-04-29 18:55 43.10448 8.72900 19943 ft 380 kts 101°
2026-04-29 18:55 43.09946 8.76434 19418 ft 375 kts 101°
2026-04-29 18:56 43.09449 8.79930 18708 ft 370 kts 101°
2026-04-29 18:56 43.08964 8.83333 18193 ft 360 kts 101°
2026-04-29 18:56 43.08494 8.86641 17674 ft 349 kts 101°
2026-04-29 18:56 43.08035 8.89874 17214 ft 344 kts 101°
2026-04-29 18:57 43.07583 8.93053 16753 ft 345 kts 101°
2026-04-29 18:57 43.07120 8.96285 16286 ft 346 kts 101°
2026-04-29 18:57 43.06653 8.99515 15819 ft 347 kts 101°
2026-04-29 18:57 43.06182 9.02760 15349 ft 348 kts 101°
2026-04-29 18:58 43.05711 9.06013 14879 ft 349 kts 101°
2026-04-29 18:58 43.05169 9.09216 14409 ft 350 kts 108°
2026-04-29 18:58 43.04412 9.12378 14011 ft 349 kts 108°
2026-04-29 18:58 43.03652 9.15538 13504 ft 350 kts 108°
2026-04-29 18:59 43.02897 9.18678 13206 ft 344 kts 108°
2026-04-29 18:59 43.02152 9.21777 12780 ft 342 kts 108°
2026-04-29 18:59 43.01412 9.24854 12381 ft 340 kts 108°
2026-04-29 18:59 43.00674 9.27917 11972 ft 337 kts 108°
2026-04-29 19:00 42.99954 9.30907 11575 ft 335 kts 108°
2026-04-29 19:00 42.99228 9.33918 11183 ft 332 kts 108°
2026-04-29 19:00 42.98521 9.36835 10937 ft 316 kts 109°
2026-04-29 19:00 42.97838 9.39652 10415 ft 308 kts 109°
2026-04-29 19:01 42.97169 9.42412 9826 ft 304 kts 109°
2026-04-29 19:01 42.96507 9.45139 9167 ft 300 kts 109°
2026-04-29 19:01 42.95852 9.47831 8529 ft 297 kts 109°
2026-04-29 19:01 42.95210 9.50463 8091 ft 294 kts 109°
2026-04-29 19:02 42.94566 9.53089 7686 ft 288 kts 109°
2026-04-29 19:02 42.94153 9.54774 7558 ft 275 kts 109°
2026-04-29 19:02 42.93136 9.57778 7297 ft 251 kts 133°
2026-04-29 19:02 42.91726 9.59134 7176 ft 248 kts 163°
2026-04-29 19:03 42.90063 9.59383 6976 ft 244 kts 192°
2026-04-29 19:03 42.88412 9.58821 6672 ft 246 kts 197°
2026-04-29 19:03 42.86763 9.58210 6331 ft 244 kts 196°
2026-04-29 19:03 42.85121 9.57600 5981 ft 243 kts 198°
2026-04-29 19:04 42.83583 9.56688 5661 ft 241 kts 207°
2026-04-29 19:04 42.82089 9.55674 5354 ft 239 kts 208°
2026-04-29 19:04 42.80600 9.54671 5041 ft 237 kts 207°
2026-04-29 19:04 42.79146 9.53696 4742 ft 235 kts 208°
2026-04-29 19:05 42.77688 9.52721 4432 ft 232 kts 207°
2026-04-29 19:05 42.76247 9.51756 4137 ft 229 kts 207°
2026-04-29 19:05 42.74819 9.50799 3837 ft 227 kts 207°
2026-04-29 19:05 42.73422 9.49862 3549 ft 226 kts 207°
2026-04-29 19:06 42.72018 9.48921 3256 ft 224 kts 206°
2026-04-29 19:06 42.70623 9.47987 2959 ft 223 kts 206°
2026-04-29 19:06 42.67784 9.46557 2380 ft 215 kts 176°
2026-04-29 19:07 42.66327 9.46839 2167 ft 203 kts 173°
2026-04-29 19:07 42.65859 9.46900 2067 ft 197 kts 175°
2026-04-29 19:07 42.63705 9.47017 1547 ft 174 kts 178°
2026-04-29 19:07 42.62540 9.47059 1310 ft 161 kts 178°
2026-04-29 19:08 42.61487 9.47103 1161 ft 141 kts 176°
2026-04-29 19:08 42.60538 9.47149 1042 ft 136 kts 176°
2026-04-29 19:08 42.59601 9.47185 738 ft 134 kts 176°
2026-04-29 19:08 42.58671 9.47236 539 ft 134 kts 175°
2026-04-29 19:09 42.57739 9.47336 312 ft 134 kts 168°
2026-04-29 19:09 42.56882 9.47729 65 ft 130 kts 158°
2026-04-29 19:09 42.56011 9.48058 30 ft 132 kts 160°
2026-04-29 19:09 42.55259 9.48382 39 ft 81 kts 162°
2026-04-29 19:10 42.54951 9.48511 36 ft 33 kts 163°
2026-04-29 19:10 42.54809 9.48569 33 ft 32 kts 163°
2026-04-29 19:10 42.54607 9.48652 29 ft 29 kts 163°
2026-04-29 19:10 42.54374 9.48751 32 ft 24 kts 162°
2026-04-29 19:11 42.54274 9.48794 33 ft 21 kts 162°
2026-04-29 19:11 42.54172 9.48768 34 ft 10 kts 218°
2026-04-29 19:11 42.54144 9.48712 37 ft 5 kts 238°
2026-04-29 19:11 42.54136 9.48689 38 ft 1 kts 248°
2026-04-29 19:12 42.54129 9.48650 37 ft 12 kts 264°
2026-04-29 19:12 42.54182 9.48517 37 ft 16 kts 329°
2026-04-29 19:12 42.54293 9.48465 33 ft 16 kts 341°
2026-04-29 19:12 42.54355 9.48436 33 ft 12 kts 342°
2026-04-29 19:13 42.54463 9.48418 31 ft 12 kts
2026-04-29 19:13 42.54536 9.48402 32 ft 9 kts 342°
2026-04-29 19:13 42.54587 9.48381 33 ft 6 kts 343°
2026-04-29 19:13 42.54666 9.48348 33 ft 16 kts 343°
2026-04-29 19:14 42.54741 9.48318 32 ft 9 kts 343°
2026-04-29 19:14 42.54792 9.48297 33 ft 6 kts 343°
2026-04-29 19:14 42.54822 9.48284 34 ft 3 kts 343°
2026-04-29 19:14 42.54834 9.48280 34 ft 2 kts 343°
2026-04-29 19:15 42.54871 9.48242 35 ft 7 kts 299°
2026-04-29 19:15 42.54879 9.48205 36 ft 2 kts 283°
2026-04-29 19:15 42.54884 9.48177 36 ft 4 kts 282°
2026-04-29 19:15 42.54887 9.48161 37 ft 2 kts 282°
2026-04-29 19:16 42.54888 9.48153 37 ft 0 kts 282°
2026-04-29 19:16 42.54889 9.48146 38 ft 0 kts 281°
2026-04-29 19:16 42.54889 9.48144 38 ft 0 kts 281°